Flag for U.S.A. Weather past 2 weeks in Huntington Beach, California, U.S.A.

Now
75 °F

Mostly cloudy.


Feels Like: 77 °F
Forecast: 67 / 77 °F
Wind: 7 mph from Southwest

Location: John Wayne Airport-Orange County Airport

Current Time: Sep 20, 2014 at 11:29:20 AM

Latest Report: Sep 20, 2014 at 10:53 AM


Visibility: 10 mi

Pressure: 29.94 "Hg

Humidity: 64%

Dew point: 62 °F

Location of Huntington BeachLocation

Historic Weather in Huntington Beach — Graph

°F

Huntington Beach temperature yesterday

Maximum temperature yesterday: 80 °F (at 12:53 PM)
Minimum temperature yesterday: 71 °F (at 2:53 AM)
Average temperature yesterday: 75 °F

Past Weeks' High & Low Weather Summary

 TemperatureHumidityPressure
High99 °F (Sep 16, 4:53 PM)81% (Sep 12, 4:53 AM)29.92 "Hg (Sep 12, 4:53 AM)
Low69 °F (Sep 10, 3:53 AM)24% (Sep 16, 3:53 PM)29.67 "Hg (Sep 14, 4:53 PM)
Average80 °F58%29.80 "Hg
* Reported Sep 5 5:53 AM — Sep 20 5:53 AM, Huntington Beach, Weather by CustomWeather, © 2014

Note: Actual official high and low records may vary slightly from our data, if they occured in-between our weather recording intervals... More about our weather records

Advertising

Huntington Beach weather history for previous 24 hours

 ConditionsComfort  
Time TempWeatherWind HumidityBarometerVisibility
5:53 AM
Sep 20
72 °FOvercast.3 mph71%29.90 "Hg10 mi
4:53 AM71 °FOvercast.5 mph76%29.89 "Hg10 mi
3:53 AM71 °FMostly cloudy.No wind76%29.89 "Hg10 mi
2:53 AM71 °FClear.3 mph76%29.88 "Hg10 mi
1:53 AM71 °FClear.3 mph73%29.89 "Hg10 mi
12:53 AM71 °FClear.3 mph76%29.89 "Hg10 mi
11:53 PM
Sep 19
72 °FClear.No wind71%29.89 "Hg10 mi
10:53 PM73 °FClear.No wind69%29.88 "Hg10 mi
9:53 PM73 °FClear.No wind69%29.88 "Hg10 mi
8:53 PM73 °FClear.3 mph69%29.86 "Hg10 mi
7:53 PM74 °FClear.5 mph67%29.84 "Hg10 mi
6:53 PM75 °FPassing clouds.5 mph62%29.84 "Hg10 mi
5:53 PM77 °FSunny.8 mph58%29.83 "Hg10 mi
4:53 PM78 °FPassing clouds.12 mph54%29.83 "Hg10 mi
3:53 PM79 °FPassing clouds.13 mph52%29.83 "Hg10 mi
2:53 PM79 °FPassing clouds.9 mph52%29.83 "Hg10 mi
1:53 PM80 °FPassing clouds.9 mph49%29.85 "Hg10 mi
12:53 PM80 °FPassing clouds.12 mph49%29.87 "Hg10 mi
11:53 AM79 °FScattered clouds.10 mph52%29.89 "Hg10 mi
Weather by CustomWeather, © 2014

See weather overviewHow to use our weather pages